Location: Carrer del Canonge
(41.4901°N, 2.2931°E)
Time: 04:25:58
(UTC+00:00)

Cosmos 1707 - Pass Details

Date: 18 September 2020
Orbit: 515 x 530 km, 82.5° (Epoch: 25 October)

Event Time Altitude Azimuth Distance (km) Brightness Sun altitude
Rises 19:17:20 0° 352° (N) 2,648 6.6 -16.1°
Reaches altitude 10° 19:19:28 10° 354° (N) 1,754 5.7 -16.5°
Maximum altitude 19:23:19 83° 81° (E) 525 2.6 -17.2°
Enters shadow 19:25:58 19° 170° (S) 1,265 4.4 -17.7°
